SPACEBEE-7

Last updated on Tue Jul 01 2025 00:03:44 GMT+0000 (Coordinated Universal Time)

1 43816U 18099BL 25181.49951475 .00021370 00000+0 58473-3 0 9992 2 43816 97.4943 252.1338 0006153 54.2472 305.9344 15.37356118360011
UTC large
Height (km)
Speed (km/s)
/
Latitude / Longitude
Inclination (degrees)
Orbital Period (minutes)
Azimuth
Elevation
Range (km)
Doppler Factor

Next 0 passes for location: London (51.5072 / 0.1276)

Sorry there are no passes over London.